Flag for Botswana Weather past 2 weeks in Gaborone, Botswana

Now
45 °F

Clear.


Feels Like: 40 °F
Forecast: 35 / 67 °F
Wind: 9 mph from South

Location: Seretse Khama International Airport

Current Time: Aug 2, 2015 at 12:46:05 AM

Latest Report: Aug 2, 2015 at 12:00 AM


Visibility: 10 mi

Pressure: 30.42 "Hg (26.90 "Hg at 1009m altitude)

Humidity: 29%

Dew point: 14 °F

Location of GaboroneLocation

Historic Weather in Gaborone — Graph

°F

Gaborone temperature yesterday

Maximum temperature yesterday: 68 °F (at 3:00 PM)
Minimum temperature yesterday: 30 °F (at 7:00 AM)
Average temperature yesterday: 50 °F

Past Weeks' High & Low Weather Summary

 TemperatureHumidityPressure
High84 °F (Jul 29, 3:00 PM)100% (Jul 25, 10:00 PM)30.48 "Hg (Jul 25, 10:00 PM)
Low30 °F (Jul 18, 7:00 AM)5% (Jul 30, 2:00 PM)29.98 "Hg (Jul 24, 2:00 PM)
Average57 °F35%30.21 "Hg
* Reported Jul 17 11:00 PM — Aug 1 11:00 PM, Gaborone, Weather by CustomWeather, © 2015

Note: Actual official high and low records may vary slightly from our data, if they occured in-between our weather recording intervals... More about our weather records

Advertising

Gaborone weather history for previous 24 hours

 ConditionsComfort  
Time TempWeatherWind HumidityBarometerVisibility
11:00 PM
Sat, Aug 1
46 °FClear.6 mph27%30.42 "Hg10 mi
10:00 PM48 °FClear.2 mph23%30.42 "Hg10 mi
9:00 PM50 °FClear.2 mph20%30.39 "Hg10 mi
8:00 PM48 °FClear.1 mph20%30.39 "Hg10 mi
7:00 PM59 °FClear.1 mph14%30.39 "Hg10 mi
6:00 PM63 °FClear.6 mph13%30.36 "Hg10 mi
5:00 PM68 °FClear.6 mph11%30.36 "Hg10 mi
4:00 PM68 °FPassing clouds.7 mph11%30.36 "HgN/A
3:00 PM68 °FSunny.5 mph56%30.36 "Hg10 mi
2:00 PM66 °FSunny.5 mph13%30.36 "Hg10 mi
1:00 PM64 °FPassing clouds.6 mph14%30.39 "HgN/A
12:00 PM63 °FPassing clouds.9 mph14%30.42 "HgN/A
11:00 AM61 °FPassing clouds.10 mph16%30.45 "HgN/A
10:00 AM55 °FPassing clouds.8 mph21%30.48 "HgN/A
9:00 AM50 °FPassing clouds.3 mph24%30.45 "HgN/A
8:00 AM39 °FPassing clouds.3 mph42%30.42 "HgN/A
7:00 AM30 °FSunny.2 mph55%30.42 "Hg10 mi
6:00 AM34 °FSunny.2 mph48%30.39 "Hg10 mi
5:00 AM32 °FPassing clouds.3 mph55%30.36 "HgN/A
4:00 AM34 °FClear.2 mph48%30.36 "Hg10 mi
3:00 AM34 °FClear.1 mph48%30.36 "Hg10 mi
2:00 AM41 °FPassing clouds.3 mph39%30.36 "HgN/A
1:00 AM41 °FPassing clouds.3 mph39%30.36 "HgN/A
12:00 AM48 °FClear.8 mph29%30.36 "Hg10 mi
Weather by CustomWeather, © 2015

See weather overviewHow to use our weather pages